Location: Jaite
(41.2884°N, 81.5737°W)
Time: 18:50:58
(UTC+00:00)

USA 215 - Pass Details

Date: 18 January 2020
Orbit: 1098 x 1110 km, 123.0° (Epoch: 24 February)

Event Time Altitude Azimuth Distance (km) Brightness Sun altitude
Rises 11:00:39 0° 144° (SE) 3,900 6.9 -20.0°
Reaches altitude 10° 11:03:10 10° 148° (SSE) 2,946 6.1 -19.5°
Maximum altitude 11:09:35 60° 227° (SW) 1,247 3.3 -18.3°
Enters shadow 11:13:31 25° 299° (WNW) 2,065 4.1 -17.6°
